This is the latest recevied weather packets stored in our database for station/object KA1AL. If no packets are shown the sender has not sent any weather packets the latest 10 day(s).
| Time | Temp. | Humidity | Pressure | Rain* | Wind** | Luminosity | Snow |
|---|---|---|---|---|---|---|---|
| 1777489196 | 11.67° C | 81% | 1014.7 hPa | 0 mm | - | 187 W/m² | - |
| 1777488893 | 12.22° C | 80% | 1014.9 hPa | 0 mm | - | 205 W/m² | - |
| 1777488590 | 12.22° C | 81% | 1014.7 hPa | 0 mm | - | 236 W/m² | - |
| 1777488288 | 11.67° C | 82% | 1014.6 hPa | 0 mm | - | 264 W/m² | - |
| 1777487986 | 11.67° C | 82% | 1014.8 hPa | 0 mm | - | 228 W/m² | - |
| 1777487684 | 11.67° C | 81% | 1014.6 hPa | 0 mm | - | 240 W/m² | - |
| 1777487380 | 11.67° C | 81% | 1014.8 hPa | 0 mm | - | 207 W/m² | - |
| 1777487078 | 11.67° C | 80% | 1014.6 hPa | 0 mm | - | 273 W/m² | - |
| 1777486773 | 11.67° C | 81% | 1014.7 hPa | 0 mm | - | 280 W/m² | - |
| 1777486472 | 11.67° C | 81% | 1014.7 hPa | 0 mm | - | 262 W/m² | - |
| 1777486169 | 11.67° C | 80% | 1014.6 hPa | 0 mm | - | 248 W/m² | - |
| 1777485866 | 11.67° C | 81% | 1014.8 hPa | 0 mm | - | 296 W/m² | - |
| 1777485561 | 11.67° C | 80% | 1014.7 hPa | 0 mm | - | 271 W/m² | - |
| 1777485258 | 11.67° C | 80% | 1014.8 hPa | 0 mm | - | 297 W/m² | - |
| 1777484954 | 11.67° C | 80% | 1014.8 hPa | 0 mm | - | 241 W/m² | - |
| 1777484651 | 11.67° C | 80% | 1014.8 hPa | 0 mm | - | 234 W/m² | - |
| 1777484348 | 11.67° C | 81% | 1014.8 hPa | 0 mm | - | 256 W/m² | - |
| 1777484043 | 11.67° C | 81% | 1015 hPa | 0 mm | - | 307 W/m² | - |
| 1777483740 | 11.67° C | 80% | 1014.6 hPa | 0 mm | - | 314 W/m² | - |
| 1777483436 | 11.67° C | 80% | 1014.6 hPa | 0 mm | - | 345 W/m² | - |
| 1777483131 | 11.11° C | 82% | 1014.5 hPa | 0 mm | - | 413 W/m² | - |
| 1777482828 | 11.67° C | 80% | 1014.7 hPa | 0 mm | - | 510 W/m² | - |
| 1777482524 | 11.67° C | 81% | 1014.7 hPa | 0 mm | - | 385 W/m² | - |
| 1777482222 | 11.11° C | 82% | 1014.8 hPa | 0 mm | - | 436 W/m² | - |
| 1777481919 | 10.56° C | 84% | 1015.1 hPa | 0 mm | - | 436 W/m² | - |
* Rain latest hour (hover to see other rain measurements)
** Current wind speed in m/s (hover to see current wind gust speed)